Location: Brabourne
(51.1333°N, 1.0000°E)
Time: 06:37:42
(UTC+00:00)

Cosmos 1606 - Pass Details

Date: 20 June 2021
Orbit: 501 x 527 km, 82.5° (Epoch: 31 July)

Event Time Altitude Azimuth Distance (km) Brightness Sun altitude
Rises 00:54:42 0° 354° (N) 2,661 7.7 -14.4°
Reaches altitude 10° 00:56:56 10° 1° (N) 1,763 6.7 -14.3°
Maximum altitude 01:00:39 45° 75° (ENE) 714 3.6 -14.1°
Enters shadow 01:03:50 13° 146° (SSE) 1,544 4.7 -14.0°
